Location: Sungai Kamana Besar
(2.6333°N, 113.4333°E)
Time: 05:43:03
(UTC+00:00)

Atlas Centaur 2 - Pass Details

Date: 29 May 2022
Orbit: 459 x 1304 km, 30.4° (Epoch: 24 June)

Event Time Altitude Azimuth Distance (km) Brightness Sun altitude
Exits shadow 20:49:08 28° 280° (W) 1,910 3.6 -20.8°
Maximum altitude 20:52:27 44° 331° (NNW) 1,552 3.5 -20.1°
Drops below altitude 10° 21:00:11 10° 41° (NE) 3,249 6.2 -18.3°
Sets 21:03:26 0° 47° (NE) 4,259 7.2 -17.6°
